Starlink 36142

operational
NORAD ID: 66981 Int'l Des: 2025-288 Owner: SPXS Country: US Constellation: starlink
LEOCIRCULAR

Starlink 36142について

説明を読み込み中...

リアルタイム位置

3D地球を読み込み中...

次回通過

高度履歴

Altitude vs Time

uPlot chart will show altitude changes over time

軌道要素

1 66981C 25288Y 25346.10118056 -.01090100 00000+0 -17899-2 0 3461
2 66981 43.0042 171.8130 0001855 270.2777 146.7464 16.03272268 17
Epoch: Dec 12, 2025 • Age: 59 hours

現在のステータス

高度 289.3 km
速度 7.74 km/s
衛星直下点 -42.29°S, 169.48°E
打ち上げ日 Dec 8, 2025
運用期間 5 days
タイプ internet

技術仕様

分類 Payload
質量 575.00 kg
乾燥質量 530.00 kg
総質量 575.00 kg
長さ 0.30 m
直径 4.10 m
スパン 29.00 m
形状 Box + pan
製造者 SPXS
バスタイプ Starlink V2MO
フェーズステータス In Orbit
所有者/国 SPXS/US

大規模コンステレーション

Loading constellations...